Location: ????????
(48.4751°N, 37.6926°E)
Time: 02:54:32
(UTC+00:00)

Nadezhda 4 Rocket - Pass Details

Date: 20 January 2021
Orbit: 949 x 993 km, 82.9° (Epoch: 24 February)

Event Time Altitude Azimuth Distance (km) Brightness Sun altitude
Rises 15:25:23 0° 167° (SSE) 3,676 7.1 -12.4°
Reaches altitude 10° 15:27:59 10° 162° (SSE) 2,727 6.3 -12.8°
Maximum altitude 15:33:55 47° 90° (E) 1,268 4.2 -13.8°
Drops below altitude 10° 15:39:49 10° 19° (NNE) 2,715 6.0 -14.7°
Sets 15:42:23 0° 14° (NNE) 3,660 6.7 -15.1°
